Domov               UVHVVR             MKGP            O straneh              
ZDRAVSTVENO VARSTVO RASTLIN
  MREŽA AGROMET. POSTAJ
 ► PROGNOSTIČNA OBVESTILA
AGROMETEOROLOŠKI PODATKI -
ARSO
OBVLADOVANJE TVEGANJ ZARADI
NEUGODNIH VREMENSKIH RAZMER
  ► NARAVNE NESREČE
  ► SUŠA/MOČA
  ► NAMAKANJE
  ► ŽLED (gozdarstvo)
KARTOGRAFSKI PRIKAZI
SPLETNE POVEZAVE
PROJEKTI IN PUBLIKACIJE

AGROMETEOROLOŠKA MREŽA: VREMENSKE POSTAJE IN FENOLOŠKA OPAZOVANJA

Pregled podatkov za lokacijo Čelje, meteorološka postaja 37797

Pregled senzorjev na lokaciji

ID Ime Zadnja
vrednost
Datum
zadnje
spremembe
Tip
senzorja
1815 Omočenost lista (U) 0 U 23.3.2019 12:00 A730WET
1812 Padavine (mm) 0 mm 23.3.2019 12:00 Rain-O-Matic
1814 Relativna vlaga 2 m (% RH) 26,47 % RH 23.3.2019 12:00 50YA
1813 Temperatura 2 m (°C) 17,73 °C 23.3.2019 12:00 50YA

Pregled podatkov zadnjih 24 ur

Zap.
št.
Datum in čas Čelje
Omočenost
lista
Padavine Relativna
vlaga
2
m
Temperatura
2
m
1 23.3.2019 11:30
2 23.3.2019 11:00
3 23.3.2019 10:30
4 23.3.2019 10:00
5 23.3.2019 09:30 0 0 30,5 15,7
6 23.3.2019 09:00 0 0 31,7 14,5
7 23.3.2019 08:30 0 0 34,8 12,9
8 23.3.2019 08:00 0 0 37,4 11,3
9 23.3.2019 07:30 0 0 41,7 9,5
10 23.3.2019 07:00 0 0 44,1 8,4
11 23.3.2019 06:30 0 0 44,1 8,2
12 23.3.2019 06:00 0 0 44,2 8,4
13 23.3.2019 05:30 0 0 46,9 7,4
14 23.3.2019 05:00 0 0 48,6 6,8
15 23.3.2019 04:30 0 0 47,9 7
16 23.3.2019 04:00 0 0 46,2 7,3
17 23.3.2019 03:30 0 0 45,6 7,4
18 23.3.2019 03:00 0 0 44,3 7,7
19 23.3.2019 02:30 0 0 44,4 7,9
20 23.3.2019 02:00 0 0 44 8,2
21 23.3.2019 01:30 0 0 42,1 8,5
22 23.3.2019 01:00 0 0 40,8 8,7
23 23.3.2019 00:30 0 0 40 9
24 23.3.2019 00:00 0 0 40,2 9
25 22.3.2019 23:30 0 0 40,3 9,1
26 22.3.2019 23:00 0 0 39,5 9,3
27 22.3.2019 22:30 0 0 38,6 9,7
28 22.3.2019 22:00 0 0 38,1 9,7
29 22.3.2019 21:30 0 0 37,9 9,9
30 22.3.2019 21:00 0 0 36,6 10,2
31 22.3.2019 20:30 0 0 34,7 10,6
32 22.3.2019 20:00 0 0 33,6 10,8
33 22.3.2019 19:30 0 0 31,7 11,3
34 22.3.2019 19:00 0 0 30,8 11,6
35 22.3.2019 18:30 0 0 30,7 12,1
36 22.3.2019 18:00 0 0 29,6 13,1
37 22.3.2019 17:30 0 0 27,6 14,3
38 22.3.2019 17:00 0 0 25,7 15,2
39 22.3.2019 16:30 0 0 22 16,4
40 22.3.2019 16:00 0 0 19,9 17,2
41 22.3.2019 15:30 0 0 21,2 17,4
42 22.3.2019 15:00 0 0 22,4 18,1
43 22.3.2019 14:30 0 0 22,6 17,8
44 22.3.2019 14:00 0 0 20,8 17,9
45 22.3.2019 13:30 0 0 21,4 17,8
46 22.3.2019 13:00 0 0 20 17,3
47 22.3.2019 12:30 0 0 18,9 16,6
48 22.3.2019 12:00 0 0 21,9 15,9
© 2011 Ministrstvo za kmetijstvo, gozdarstvo in prehrano. Vse pravice pridržane.